DW6340 Weather Reports


time (UTC)temp
F
wind
direction
speed
knots
gust
knots
rain 1hr
in
rain 24hr
in
rain mn
in
humidity
%
barometer
mb
20260508043019 41 287 0.9 8.7 0.00 0.00 0.00 62 1017.2
20260508041515 41 265 1.7 11.3 0.00 0.00 0.00 60 1017.1
20260508040010 41 255 1.7 10.4 0.00 0.00 0.00 59 1017.1
20260508034511 41 236 2.6 8.7 0.00 0.00 0.00 60 1017.1
20260508033010 41 264 0.0 7.0 0.00 0.00 0.00 59 1017.0
20260508031509 41 242 1.7 8.7 0.00 0.00 0.00 58 1017.2
20260508030009 41 250 2.6 12.2 0.00 0.00 0.00 58 1017.4
20260508024508 42 277 3.5 13.9 0.00 0.00 0.00 58 1017.3
20260508023009 42 252 2.6 12.2 0.00 0.00 0.00 57 1017.3
20260508021508 42 277 0.0 8.7 0.00 0.00 0.00 57 1017.2
20260508020011 42 250 0.0 9.6 0.00 0.00 0.00 56 1017.1
20260508014510 42 250 0.9 6.1 0.00 0.00 0.00 56 1017.0
20260508013009 42 270 3.5 13.0 0.00 0.00 0.00 55 1016.7
20260508011506 42 253 2.6 12.2 0.00 0.00 0.00 55 1016.5
20260508010005 43 275 1.7 14.8 0.00 0.00 0.00 53 1016.5
20260508004509 43 252 4.3 14.8 0.00 0.00 0.00 53 1016.4
20260508003004 44 246 3.5 10.4 0.00 0.00 0.00 51 1016.5
20260508001502 45 260 2.6 9.6 0.00 0.00 0.00 50 1016.5
20260508000002 44 290 0.0 5.2 0.00 0.00 0.00 54 1016.6
20260507234501 45 248 2.6 12.2 0.00 0.00 0.00 50 1016.9
20260507233100 46 244 4.3 9.6 0.00 0.00 0.00 49 1016.8
20260507231559 44 247 0.9 4.3 0.00 0.00 0.00 56 1017.4
20260507230057 44 245 0.9 8.7 0.00 0.00 0.00 57 1017.7
20260507224559 44 237 0.0 4.3 0.00 0.00 0.00 60 1017.8
20260507223057 43 237 0.9 10.4 0.00 0.00 0.00 60 1018.0
20260507221553 46 255 1.7 9.6 0.00 0.00 0.00 54 1017.9
20260507220051 44 246 1.7 8.7 0.00 0.00 0.00 58 1018.3
20260507214550 43 255 2.6 9.6 0.00 0.01 0.00 59 1018.7
20260507213049 44 254 3.5 9.6 0.00 0.01 0.00 57 1019.1
20260507211546 46 255 0.9 10.4 0.00 0.01 0.00 57 1019.3
20260507210046 45 263 4.3 15.6 0.00 0.01 0.00 51 1019.5
20260507204547 46 269 4.3 12.2 0.00 0.02 0.00 52 1019.5
20260507203044 46 258 3.5 10.4 0.00 0.02 0.00 52 1019.6
20260507201539 45 259 3.5 12.2 0.00 0.02 0.00 52 1019.7
20260507200035 45 257 1.7 8.7 0.00 0.02 0.00 56 1020.1
20260507194533 43 238 3.5 9.6 0.00 0.05 0.00 56 1020.4
20260507193030 43 241 3.5 12.2 0.00 0.05 0.00 56 1020.5
20260507191527 42 257 5.2 12.2 0.00 0.05 0.00 56 1020.9
20260507190025 43 261 1.7 8.7 0.00 0.05 0.00 58 1021.1
20260507184521 42 254 1.7 9.6 0.00 0.09 0.00 58 1021.1
20260507183019 41 271 3.5 13.0 0.00 0.09 0.00 56 1021.4
20260507181517 41 248 3.5 9.6 0.00 0.09 0.00 60 1021.5
20260507180017 41 252 2.6 12.2 0.00 0.09 0.00 60 1021.6
20260507174516 39 250 5.2 12.2 0.00 0.12 0.00 63 1021.7
20260507173026 40 256 1.7 9.6 0.00 0.12 0.00 62 1021.8
20260507171513 40 223 2.6 11.3 0.00 0.12 0.00 63 1022.1
20260507170010 40 261 3.5 10.4 0.00 0.12 0.00 62 1022.4
20260507164508 40 259 0.9 9.6 0.00 0.17 0.00 62 1022.6
20260507163005 39 286 1.7 8.7 0.00 0.17 0.00 64 1022.8
20260507161509 38 242 0.9 7.8 0.00 0.17 0.00 66 1022.9
20260507160100 37 260 0.9 5.2 0.00 0.17 0.00 65 1023.4
20260507154556 36 139 0.9 10.4 0.00 0.22 0.00 69 1023.8
20260507153051 34 301 0.0 0.0 0.00 0.22 0.00 70 1024.3
20260507151547 32 301 0.0 0.0 0.00 0.22 0.00 71 1024.8
20260507150045 31 301 0.0 0.0 0.00 0.22 0.00 73 1025.1
20260507144608 30 301 0.0 0.0 0.00 0.26 0.00 74 1025.1
20260507143042 30 301 0.0 0.0 0.00 0.26 0.00 73 1025.0
20260507141540 29 301 0.0 0.0 0.00 0.26 0.00 72 1025.3
20260507140033 26 301 0.0 0.0 0.00 0.26 0.00 82 1025.3
20260507134530 23 301 0.0 0.0 0.00 0.30 0.00 82 1025.2
20260507133026 21 301 0.0 0.0 0.00 0.30 0.00 80 1025.2
20260507131522 19 301 0.0 0.0 0.00 0.30 0.00 81 1025.3
20260507130020 18 301 0.0 0.0 0.00 0.30 0.00 83 1025.0
20260507124522 18 301 0.0 0.0 0.00 0.32 0.00 83 1024.8
20260507123019 17 301 0.0 0.0 0.00 0.32 0.00 84 1024.5
20260507121517 17 301 0.0 0.0 0.00 0.32 0.00 83 1024.5
20260507120016 16 301 0.0 0.0 0.00 0.32 0.00 84 1024.3
20260507114515 16 301 0.0 0.0 0.00 0.34 0.00 83 1024.2
20260507113014 17 301 0.0 0.0 0.00 0.34 0.00 82 1023.9
20260507111517 18 301 0.0 0.0 0.00 0.34 0.00 82 1023.6
20260507110010 18 301 0.0 0.0 0.00 0.34 0.00 82 1023.4
20260507104510 18 301 0.0 0.0 0.00 0.35 0.00 82 1023.4
20260507103008 18 301 0.0 0.0 0.00 0.35 0.00 82 1023.4
20260507101507 18 301 0.0 0.0 0.00 0.35 0.00 82 1023.4
20260507100006 18 301 0.0 0.0 0.00 0.35 0.00 81 1023.5
20260507094505 18 301 0.0 0.0 0.00 0.35 0.00 81 1023.3
20260507093005 19 301 0.0 0.0 0.00 0.35 0.00 81 1023.0
20260507091503 16 235 0.0 0.0 0.00 0.35 0.00 82 1022.8
20260507090007 15 290 0.0 0.0 0.00 0.35 0.00 84 1022.3
20260507084601 16 274 0.0 0.0 0.00 0.36 0.00 85 1022.2
20260507083100 17 273 0.0 0.0 0.00 0.36 0.00 85 1021.9
20260507081558 16 273 0.0 0.0 0.00 0.36 0.00 85 1021.5
20260507080056 17 279 0.0 0.0 0.00 0.36 0.00 85 1021.1
20260507074552 0 0.0 0.0 0.00 0.38 0.00 1021.4
20260507073049 0 0.0 0.0 0.00 0.38 0.00 1021.7
20260507071542 0 0.0 0.0 0.00 0.38 0.00 1022.1
20260507070039 0 0.0 0.0 0.00 0.38 0.00 1022.7
20260507064535 19 301 0.0 0.0 0.00 0.43 0.00 81 1023.3
20260507063042 19 301 0.0 0.0 0.00 0.43 0.00 81 1023.1
20260507061532 19 301 0.0 0.0 0.00 0.43 0.00 81 1023.0
20260507060046 18 301 0.0 0.0 0.00 0.43 0.00 81 1022.6
20260507054528 19 301 0.0 0.0 0.00 0.45 0.43 80 1022.1
20260507053023 19 301 0.0 0.0 0.00 0.45 0.43 80 1021.7
20260507051520 20 301 0.0 0.0 0.00 0.45 0.43 79 1021.2
20260507050019 20 301 0.0 0.0 0.00 0.45 0.43 1020.6
20260507044530 0 0.0 0.0 0.00 0.47 0.43 1021.0